FLOCK 2K-40 (42865 NORAD) Tracking and Keplerian Element Data

This shows tracking and keplerian element data for the satellite.

Feedback or suggestion? Click here.




ElementValue
Catalog42865
NameFLOCK 2K-40
Epoch Orbit23591
Epoch Day268.80921257
Epoch Year2021
RAAN116.7842
Inclination96.8408
Eccentricity0.0009593
Argument of Perigee68.2816
Mean Anonmoly291.9456
Mean Motion15.47772645
Decay Rate0.00024234
L11 42865U 17042AS 21268.80921257 .00024234 00000-0 46745-3 0 9996
L22 42865 96.8408 116.7842 0009593 68.2816 291.9456 15.47772645235912

Live tracking and technical data element details for FLOCK 2K-40 (NORAD 42865). FLOCK 2K-40 can be tracked NOW for your location showing map with azimuth and elevation plus other details from your city location.

Track the satellite on the map from your city or location and see movement details for azimuth, elevation, latitude, longitude, range, height, and movement on the map or in text.







IsCatalogInMostPopularTable: catalog: 42865, numindb: 588
Update: records affected: 1



GetName: 42865 FLOCK 2K-40

Hit Count: updated at: Mon, 27 Sep 2021 00:27:16 GMT